• In Uzbekistan
  • List of Countries
  • For 7 days
  • Water Temperature
  • Satellite Maps
  • Weather Map
  • Weather Widgets
  • user-avatar
    Login

    Hourly Weather Ghanzi

    Today, 19 August, Saturday

    Time Temperature Precipitation Wind Pressure Humidity
    00:00 +35°C° 0 mm 5 mps 713 mmHg 19%
    01:00 +34°C° 0 mm 6 mps 713 mmHg 20%
    02:00 +33°C° 0 mm 5 mps 713 mmHg 20%
    03:00 +33°C° 0 mm 5 mps 713 mmHg 21%
    04:00 +32°C° 0 mm 5 mps 713 mmHg 21%
    05:00 +32°C° 0 mm 5 mps 713 mmHg 21%
    06:00 +33°C° 0 mm 6 mps 714 mmHg 20%
    07:00 +33°C° 0 mm 6 mps 714 mmHg 19%
    08:00 +36°C° 0 mm 5 mps 715 mmHg 17%
    09:00 +39°C° 0 mm 5 mps 715 mmHg 15%
    10:00 +41°C° 0 mm 4 mps 715 mmHg 12%
    11:00 +42°C° 0 mm 4 mps 715 mmHg 12%
    12:00 +42°C° 0 mm 3 mps 715 mmHg 11%
    13:00 +42°C° 0 mm 2 mps 714 mmHg 11%
    14:00 +43°C° 0 mm 3 mps 714 mmHg 11%
    15:00 +43°C° 0 mm 4 mps 714 mmHg 11%
    16:00 +43°C° 0 mm 5 mps 713 mmHg 11%
    17:00 +42°C° 0 mm 6 mps 713 mmHg 13%
    18:00 +40°C° 0 mm 6 mps 713 mmHg 14%
    19:00 +38°C° 0 mm 6 mps 713 mmHg 16%
    20:00 +38°C° 0 mm 6 mps 714 mmHg 17%
    21:00 +37°C° 0 mm 5 mps 714 mmHg 17%
    22:00 +36°C° 0 mm 5 mps 714 mmHg 17%
    23:00 +36°C° 0 mm 5 mps 714 mmHg 18%

    Tomorrow, 20 August, Sunday

    Time Temperature Precipitation Wind Pressure Humidity
    00:00 +35°C° 0 mm 5 mps 714 mmHg 19%
    01:00 +34°C° 0 mm 6 mps 714 mmHg 20%
    02:00 +33°C° 0 mm 5 mps 714 mmHg 20%
    03:00 +33°C° 0 mm 5 mps 714 mmHg 21%
    04:00 +32°C° 0 mm 5 mps 714 mmHg 21%
    05:00 +33°C° 0 mm 6 mps 714 mmHg 20%
    06:00 +33°C° 0 mm 7 mps 715 mmHg 20%
    07:00 +34°C° 0 mm 8 mps 715 mmHg 19%
    08:00 +37°C° 0 mm 8 mps 716 mmHg 17%
    09:00 +38°C° 0 mm 7 mps 716 mmHg 16%
    10:00 +40°C° 0 mm 7 mps 716 mmHg 14%
    11:00 +41°C° 0 mm 6 mps 716 mmHg 14%
    12:00 +42°C° 0 mm 6 mps 715 mmHg 13%
    13:00 +43°C° 0 mm 5 mps 714 mmHg 12%
    14:00 +43°C° 0 mm 5 mps 714 mmHg 12%
    15:00 +43°C° 0 mm 4 mps 713 mmHg 12%
    16:00 +43°C° 0 mm 4 mps 713 mmHg 12%
    17:00 +42°C° 0 mm 4 mps 713 mmHg 13%
    18:00 +40°C° 0 mm 4 mps 713 mmHg 15%
    19:00 +38°C° 0 mm 4 mps 713 mmHg 16%
    20:00 +37°C° 0 mm 5 mps 713 mmHg 16%
    21:00 +37°C° 0 mm 5 mps 714 mmHg 17%
    22:00 +36°C° 0 mm 6 mps 714 mmHg 18%
    23:00 +35°C° 0 mm 6 mps 714 mmHg 18%

    Day after tomorrow, 21 August, Monday

    Time Temperature Precipitation Wind Pressure Humidity
    00:00 +35°C° 0 mm 7 mps 714 mmHg 18%
    01:00 +34°C° 0 mm 7 mps 713 mmHg 18%
    02:00 +34°C° 0 mm 7 mps 713 mmHg 19%
    03:00 +33°C° 0 mm 7 mps 713 mmHg 19%
    04:00 +33°C° 0 mm 6 mps 714 mmHg 20%
    05:00 +33°C° 0 mm 7 mps 714 mmHg 19%
    06:00 +33°C° 0 mm 7 mps 714 mmHg 19%
    07:00 +34°C° 0 mm 7 mps 715 mmHg 18%
    08:00 +35°C° 0 mm 6 mps 715 mmHg 17%
    09:00 +38°C° 0 mm 6 mps 715 mmHg 15%
    10:00 +39°C° 0 mm 6 mps 716 mmHg 14%
    11:00 +40°C° 0 mm 5 mps 715 mmHg 13%
    12:00 +41°C° 0 mm 4 mps 714 mmHg 13%
    13:00 +42°C° 0 mm 4 mps 714 mmHg 12%
    14:00 +42°C° 0 mm 3 mps 713 mmHg 12%
    15:00 +42°C° 0 mm 3 mps 713 mmHg 12%
    16:00 +43°C° 0 mm 3 mps 712 mmHg 12%
    17:00 +40°C° 0 mm 3 mps 712 mmHg 12%
    18:00 +39°C° 0 mm 3 mps 713 mmHg 13%
    19:00 +38°C° 0 mm 3 mps 713 mmHg 14%
    20:00 +37°C° 0 mm 4 mps 713 mmHg 14%
    21:00 +37°C° 0 mm 4 mps 713 mmHg 15%
    22:00 +36°C° 0 mm 5 mps 714 mmHg 15%
    23:00 +35°C° 0 mm 6 mps 714 mmHg 16%

    22 August, Tuesday

    Time Temperature Precipitation Wind Pressure Humidity
    00:00 +34°C° 0 mm 6 mps 713 mmHg 16%
    01:00 +33°C° 0 mm 7 mps 713 mmHg 17%
    02:00 +33°C° 0 mm 6 mps 713 mmHg 17%
    03:00 +32°C° 0 mm 6 mps 713 mmHg 18%
    04:00 +30°C° 0 mm 5 mps 713 mmHg 19%
    05:00 +32°C° 0 mm 5 mps 714 mmHg 18%
    06:00 +32°C° 0 mm 6 mps 714 mmHg 17%
    07:00 +33°C° 0 mm 6 mps 715 mmHg 17%
    08:00 +35°C° 0 mm 6 mps 715 mmHg 15%
    09:00 +37°C° 0 mm 5 mps 715 mmHg 13%
    10:00 +40°C° 0 mm 5 mps 715 mmHg 12%
    11:00 +41°C° 0 mm 4 mps 714 mmHg 11%
    12:00 +42°C° 0 mm 3 mps 714 mmHg 11%
    13:00 +42°C° 0 mm 3 mps 713 mmHg 11%
    14:00 +43°C° 0 mm 3 mps 713 mmHg 10%
    15:00 +43°C° 0 mm 3 mps 712 mmHg 10%
    16:00 +43°C° 0 mm 3 mps 712 mmHg 10%
    17:00 +42°C° 0 mm 3 mps 712 mmHg 11%
    18:00 +39°C° 0 mm 3 mps 712 mmHg 12%
    19:00 +38°C° 0 mm 3 mps 712 mmHg 13%
    20:00 +37°C° 0 mm 4 mps 713 mmHg 14%
    21:00 +36°C° 0 mm 5 mps 713 mmHg 14%
    22:00 +36°C° 0 mm 6 mps 713 mmHg 14%
    23:00 +35°C° 0 mm 6 mps 713 mmHg 15%

    23 August, Wednesday

    Time Temperature Precipitation Wind Pressure Humidity
    00:00 +34°C° 0 mm 6 mps 712 mmHg 15%
    01:00 +34°C° 0 mm 7 mps 712 mmHg 15%
    02:00 +33°C° 0 mm 6 mps 712 mmHg 16%
    03:00 +32°C° 0 mm 6 mps 712 mmHg 17%
    04:00 +30°C° 0 mm 5 mps 712 mmHg 17%
    05:00 +32°C° 0 mm 6 mps 713 mmHg 17%
    06:00 +32°C° 0 mm 6 mps 714 mmHg 17%
    07:00 +33°C° 0 mm 6 mps 714 mmHg 16%
    08:00 +35°C° 0 mm 6 mps 714 mmHg 15%
    09:00 +38°C° 0 mm 6 mps 714 mmHg 13%
    10:00 +40°C° 0 mm 6 mps 715 mmHg 11%
    11:00 +41°C° 0 mm 5 mps 714 mmHg 11%
    12:00 +42°C° 0 mm 5 mps 713 mmHg 10%
    13:00 +43°C° 0 mm 4 mps 713 mmHg 10%
    14:00 +43°C° 0 mm 4 mps 712 mmHg 9%
    15:00 +43°C° 0 mm 5 mps 712 mmHg 9%
    16:00 +43°C° 0 mm 5 mps 712 mmHg 9%
    17:00 +42°C° 0 mm 5 mps 712 mmHg 10%
    18:00 +40°C° 0 mm 5 mps 712 mmHg 11%
    19:00 +37°C° 0 mm 5 mps 712 mmHg 11%
    20:00 +36°C° 0 mm 5 mps 712 mmHg 12%
    21:00 +36°C° 0 mm 5 mps 713 mmHg 13%
    22:00 +35°C° 0 mm 5 mps 713 mmHg 13%
    23:00 +34°C° 0 mm 5 mps 713 mmHg 14%

    24 August, Thursday

    Time Temperature Precipitation Wind Pressure Humidity
    00:00 +33°C° 0 mm 5 mps 712 mmHg 15%
    01:00 +33°C° 0 mm 5 mps 712 mmHg 16%
    02:00 +32°C° 0 mm 4 mps 712 mmHg 17%
    03:00 +30°C° 0 mm 4 mps 712 mmHg 18%
    04:00 +30°C° 0 mm 4 mps 712 mmHg 19%
    05:00 +30°C° 0 mm 4 mps 713 mmHg 19%
    06:00 +32°C° 0 mm 4 mps 713 mmHg 18%
    07:00 +33°C° 0 mm 5 mps 714 mmHg 17%
    08:00 +35°C° 0 mm 5 mps 714 mmHg 16%
    09:00 +37°C° 0 mm 5 mps 714 mmHg 14%
    10:00 +40°C° 0 mm 5 mps 714 mmHg 12%
    11:00 +41°C° 0 mm 5 mps 714 mmHg 11%
    12:00 +42°C° 0 mm 5 mps 713 mmHg 11%
    13:00 +43°C° 0 mm 5 mps 713 mmHg 10%
    14:00 +43°C° 0 mm 5 mps 713 mmHg 10%
    15:00 +43°C° 0 mm 5 mps 712 mmHg 9%
    16:00 +44°C° 0 mm 6 mps 712 mmHg 9%
    17:00 +41°C° 0 mm 5 mps 712 mmHg 10%
    18:00 +40°C° 0 mm 5 mps 712 mmHg 11%
    19:00 +37°C° 0 mm 4 mps 712 mmHg 13%
    20:00 +36°C° 0 mm 5 mps 713 mmHg 13%
    21:00 +36°C° 0 mm 5 mps 713 mmHg 14%
    22:00 +35°C° 0 mm 5 mps 713 mmHg 15%
    23:00 +34°C° 0 mm 5 mps 713 mmHg 16%
    Show more